Tracking 22124 objects as of 23-Jan-2021
HD Live streaming from Space Station
objects crossing your sky now

CZ-4B DEB

Track CZ-4B DEB now!
10-day predictions


NORAD ID: 46480
Int'l Code: 2020-067C
Perigee: 607.3 km
Apogee: 659.6 km
Inclination: 98.0 °
Period: 97.2 minutes
Semi major axis: 7004 km
RCS: Unknown
Launch date: September 27, 2020
Source: People's Republic of China (PRC)
Launch site: Taiyaun Space Center, China (TSC)

Note: This is SATELLITE DEBRIS
aabbcc
Your satellite tracking list
Your tracking list is empty




NASA's NSSDC Master Catalog

Two Line Element Set (TLE):
1 46480U 20067C   21022.82344708  .00000388  00000-0  56687-4 0  9995
2 46480  97.9707 103.4660 0037297   0.8261 359.3006 14.80958879 17416
Source of the keplerian elements: AFSPC